Погода Черновцы

Поиск расширенной информации на нашем сайте:

Полезная информация:

Новости сайта



02.01.2020
Опубликован Долгосрочный прогноз погоды по городам России и ближнего зарубежья на январь 2020 года.
Карты: Прогноз на январь и февраль 2020 года, Сравнение прогнозируемой аномалии приземной температуры воздуха на январь 2020 года по разным моделям.




Погода Черновцы - сегодня

Время (UTC), дата Ветер
(°,м/с) 
Видим.   Явления Облачность Т
(°С)
Тd
(°С)
f(%) Тe
(°С)
Pmin
(гПа)
dP
(гПа)
Po
(мм)
O2
(г/м3)
Тmin Tmax R s Состояние
почвы
00 19.01.20 150 (ЮВ) 17000 м    10/10 360 м 
[St]
-0.9 -2.1 92 -3  1026.8  0.2  747  302           
03 19.01.20 130 (ЮВ) 20000 м    10/10 400 м 
[St]
-1.1 -2.7 89 -4  1027.1  0.3  747  303           
06 19.01.20 130 (ЮВ) 25000 м    10/10 450 м 
[St]
-1.3 -3.6 84 -3  1028.3  1.1  748  303  -1.4         
09 19.01.20 140 (ЮВ) 20000 м    10/10 400 м 
[St]
-1.1 -3.7 82 -1  1029.5  1.2  749  303           
12 19.01.20 090 (В) 20000 м    10/10 500 м 
[St]
-0.8 -3.6 81 1030.6  1.1  750  303           
15 19.01.20 160 (Ю) 18000 м    10/10 500 м 
[St]
-1 -3.9 81 1032.9  2.2  751  304           
18 19.01.20 230 (ЮЗ) 17000 м    10/10 480 м 
[St]
-1.1 -3.7 82 -1  1035  2.1  753  305    -0.8       
21 19.01.20 310 (СЗ) 14000 м    10/10 420 м 
[St]
-1.2 -3.8 82 -1  1036.7  1.6  754  306           
00 20.01.20 330 (СЗ) 14000 м    10/10 480 м 
[St]
-1.2 -3.5 84 -2  1038.5  1.7  755  306           
03 20.01.20 300 (СЗ) 19000 м    10/10 540 м 
[St]
-1.1 -3.7 82 -4  1040  1.5  756  306           
06 20.01.20 310 (СЗ) 9000 м  дымка  10/10 540 м 
[St]
-0.7 -3.2 83 -3  1041.1  1.1  757  306  -1.3         
09 20.01.20 310 (СЗ) 9000 м  дымка  10/10 450 м 
[St]
-0.4 -2.8 84 -2  1043.1  759  306           
12 20.01.20 310 (СЗ) 15000 м    10/10 450 м 
[St]
+0.1 -2.9 80 -2  1043.2  0.1  759  306           
15 20.01.20 290 (З) 24000 м    10/10 750 м 
[Sc]
-0.3 -3.4 80 -2  1044.2  760  307           
18 20.01.20 300 (СЗ) 16000 м    10/10 900 м 
[Sc]
+0.6 -2.4 80 -2  1044.6  0.5  760  306           
21 20.01.20 290 (З) 9000 м  дымка  10/10 500 м 
[St]
+0.6 -0.8 90 -2  1043.8  -0.8  759  305           
00 21.01.20 300 (СЗ) 23000 м    10/10 700 м 
[Sc]
+1.1 -2.1 79 -2  1042.5  -1.2  758  305           
03 21.01.20 300 (СЗ) 30000 м    10/10 630 м 
[Sc]
+1 -2.6 77 -3  1040.8  -1.7  757  304           
06 21.01.20 280 (З) 30000 м    8/0 средняя, верхняя 
[Ac trans|Ci fib]
+0.1 -2.9 80 -3  1040  -0.9  756  305  +0.1         
09 21.01.20 300 (СЗ) 22000 м    8/0 средняя 
[Ac trans]
+0.8 -3.1 75 -2  1038.9  -0.9  756  304           
12 21.01.20 310 (СЗ) 45000 м    5/0 верхняя 
[Ci fib]
+4.8 -4.8 50 +3  1036.2  -2.2  754  299           
15 21.01.20 290 (З) 35000 м    3/0 верхняя 
[Ci fib]
+6.5 -7.1 37 +5  1033.8  -2.2  752  297           
18 21.01.20 310 (СЗ) 40000 м    4/0 верхняя 
[Ci fib]
+5.6 -8.8 35 +4  1031.8  -2  751  297    +7.5       
21 21.01.20 320 (СЗ) 45000 м    ясно 
+5.8 -7.4 38 +4  1031  -0.8  750  297           
00 22.01.20 300 (СЗ) 30000 м    ясно 
+1.8 -5.1 60 1029.5  -1.9  749  300           
Время (UTC), дата Ветер
(°,м/с) 
Видим.   Явления Облачность Т
(°С)
Тd
(°С)
f(%) Тe
(°С)
Pmin
(гПа)
dP
(гПа)
Po
(мм)
O2
(г/м3)
Тmin Tmax R s Состояние
почвы

Для получения пояснительной информации подведите курсор к названию столбца.

ПОГОДА Черновцы - архив

Всё, что Вы хотите узнать о погоде Черновцы - удобно и подробно!

Выберите нужную дату (начиная с 1 января 2019* года) и нажмите кнопку "Найти".
Будут отображены архивные сводки погоды по пункту Черновцы, начиная с указанной даты.


Отображать данные в формате CSV (для использования в таблицах Excel)


Внимание! Наш архив погоды предназначен исключительно для личного некоммерческого использования в познавательных целях. Если Вам необходимы официальные справки о состоянии погоды (для производственных, юридических, коммерческих и т.п. целей), обращайтесь в органы Росгидромета.

*Примечание: данная дата относится к архиву по метеостанциям СССР (Россия, СНГ, Балтия).
Архив по метеостанциям Зарубежной Европы и Азии (кроме Китая) хранится 10 дней, по другим регионам земного шара (Китай, Африка, Америка, Австралия, Океания) - 1 день.

Черновцы - район местоположения метеостанции


Название, широта, долгота, высота метеостанции:
Черновцы 48.4°ш. 25.9°д. 246 м над ур. моря [Украина]

Дополнительная информация

В oтличие oт бoльшинства пoгoдных сайтoв мы публикуем пoдрoбную метеoинфoрмацию в детальнoм прoфессиoнальнoм фoрмате.

Характеристики температуры и влажнoсти вoздуха измеряются на высoте 2 м в тени вдали oт зданий и деревьев.
Скoрoсть ветра измеряется на высoте 10 м (на урoвне рoста челoвека скoрoсть ветра ниже в 1.5-2 раза). Если метеoстанция нахoдится в гoрoде или в лесу, тo скoрoсть ветра занижена на 2-4 м/с пo сравнению с oткрытым местoм. Скoрoсть ветра над акватoриями крупных рек и oзёр, а также на вершинах хoлмoв на 2-5 м/с выше, чем в oбычных услoвиях.
Атмoсфернoе давление в разных тoчках местнoсти мoжет значительнo oтличаться oт давления на метеoстанции, в зависимoсти oт услoвий рельефа (при пoдъёме на 10 м давление пoнижается примернo на 1 мм рт.ст.).